Date String (YYYY-MM-DD hh:mm:ss) UTC,Instrument flags,absolute air pressure of the measurement (hPa),sample flow rate (lpm),inlet stack bypass flow (lpm),air temperature of the measurement (°C),ambient temperature measured by the external sensor (°C),aerosol sample conditioner tube jacket temperature (°C),OPC LED temperature (°C),internal box temperature (°C),relative humidity of the measurement (%),span deviation,mass concentration of particles derived from Lorenz-Mie calculation of OPC scattering (μg/m³),mass concentration of particles derived from Lorenz-Mie calculation of OPC scattering (μg/m³),mass concentration of particles derived from Lorenz-Mie calculation of OPC scattering (μg/m³)
DateTimeUTC,F1_M11,P_M11,Q1_M11,Q2_M11,T1_M11,T2_M11,T3_M11,T4_M11,T5_M11,U1_M11,ZSPAN_M11,X0_M11,X2_M11,X1_M11
2024-04-12 11:00:00,SystemResetWarning,0829.6,4.99,000.00,024.2,023.4,000.0,032.7,026.0,011.4,0000.0,0025.26,0005.84,0002.86
2024-04-12 11:01:00,SystemResetWarning,0829.6,5.00,000.00,024.2,023.4,000.0,032.7,026.0,011.4,0000.0,0026.48,0005.94,0002.86
2024-04-12 11:02:00,SystemResetWarning,0829.5,5.00,000.00,024.2,023.4,000.0,032.7,026.0,011.4,0000.0,0026.32,0006.03,0002.87
2024-04-12 11:03:00,SystemResetWarning,0829.5,5.00,000.00,024.2,023.4,000.0,032.7,026.0,011.5,0000.0,0025.35,0006.10,0002.87
2024-04-12 11:04:00,SystemResetWarning,0829.6,4.99,000.00,024.1,023.4,000.0,032.7,026.0,011.5,0000.0,0023.27,0006.03,0002.88
2024-04-12 11:05:00,SystemResetWarning,0829.6,5.00,000.00,024.1,023.4,000.0,032.7,026.0,011.5,0000.0,0022.39,0005.95,0002.86
2024-04-12 11:06:00,SystemResetWarning,0829.7,5.00,000.00,024.1,023.3,000.0,032.7,026.0,011.5,0000.0,0021.90,0005.94,0002.84
2024-04-12 11:07:00,SystemResetWarning,0829.6,5.01,000.00,024.1,023.3,000.0,032.7,025.9,011.6,0000.0,0022.63,0005.97,0002.84
2024-04-12 11:08:00,SystemResetWarning,0829.6,5.01,000.00,024.1,023.3,000.0,032.7,025.9,011.5,0000.0,0022.11,0005.94,0002.84
2024-04-12 11:09:00,SystemResetWarning,0829.5,4.98,000.00,024.1,023.3,000.0,032.7,026.0,011.6,0000.0,0021.74,0005.92,0002.86
2024-04-12 11:10:00,SystemResetWarning,0829.6,4.99,000.00,024.1,023.3,000.0,032.7,025.9,011.7,0000.0,0020.13,0005.82,0002.85
2024-04-12 11:11:00,SystemResetWarning,0829.7,5.01,000.00,024.1,023.3,000.0,032.7,025.9,011.6,0000.0,0018.14,0005.79,0002.87
2024-04-12 11:12:00,SystemResetWarning,0829.7,5.00,000.00,024.1,023.3,000.0,032.7,025.9,011.7,0000.0,0016.76,0005.74,0002.87
2024-04-12 11:13:00,SystemResetWarning,0829.7,4.99,000.00,024.1,023.2,000.0,032.6,025.9,011.7,0000.0,0016.75,0005.69,0002.87
2024-04-12 11:14:00,SystemResetWarning,0829.7,5.00,000.00,024.0,023.2,000.0,032.6,025.9,011.7,0000.0,0017.87,0005.67,0002.86
2024-04-12 11:15:00,SystemResetWarning,0829.7,5.00,000.00,024.0,023.2,000.0,032.6,025.9,011.7,0000.0,0017.78,0005.66,0002.89
2024-04-12 11:16:00,SystemResetWarning,0829.7,5.00,000.00,024.0,023.2,000.0,032.6,025.9,011.8,0000.0,0017.56,0005.66,0002.93
2024-04-12 11:17:00,SystemResetWarning,0829.7,5.00,000.00,024.0,023.2,000.0,032.6,025.9,011.7,0000.0,0017.49,0005.57,0002.95
2024-04-12 11:18:00,SystemResetWarning,0829.7,4.99,000.00,024.0,023.2,000.0,032.6,025.9,011.7,0000.0,0018.07,0005.51,0002.95
2024-04-12 11:19:00,SystemResetWarning,0829.7,5.00,000.00,024.0,023.2,000.0,032.6,025.9,011.8,0000.0,0018.09,0005.53,0002.97
2024-04-12 11:20:00,SystemResetWarning,0829.7,5.00,000.00,024.0,023.2,000.0,032.6,025.9,012.0,0000.0,0019.40,0005.61,0002.97
2024-04-12 11:21:00,SystemResetWarning,0829.7,5.00,000.00,024.0,023.2,000.0,032.6,025.8,012.0,0000.0,0020.30,0005.67,0002.96
2024-04-12 11:22:00,SystemResetWarning,0829.7,5.00,000.00,024.0,023.2,000.0,032.6,025.8,012.1,0000.0,0020.40,0005.74,0002.96
2024-04-12 11:23:00,SystemResetWarning,0829.7,5.00,000.00,024.0,023.2,000.0,032.6,025.8,012.1,0000.0,0020.83,0005.79,0002.96
2024-04-12 11:24:00,SystemResetWarning,0829.8,5.00,000.00,024.0,023.2,000.0,032.6,025.8,012.3,0000.0,0021.56,0005.75,0002.95
2024-04-12 11:25:00,SystemResetWarning,0829.9,5.01,000.00,024.0,023.2,000.0,032.6,025.8,012.4,0000.0,0020.66,0005.70,0002.94
2024-04-12 11:26:00,SystemResetWarning,0830.0,5.01,000.00,024.0,023.2,000.0,032.6,025.8,012.4,0000.0,0020.92,0005.79,0002.93
2024-04-12 11:27:00,SystemResetWarning,0829.8,5.01,000.00,023.9,023.1,000.0,032.6,025.7,012.5,0000.0,0021.66,0005.87,0002.89
2024-04-12 11:28:00,SystemResetWarning,0829.8,5.00,000.00,023.9,023.1,000.0,032.5,025.7,012.5,0000.0,0023.30,0005.89,0002.87
2024-04-12 11:29:00,SystemResetWarning,0829.8,5.00,000.00,023.9,023.1,000.0,032.5,025.7,012.6,0000.0,0022.17,0005.87,0002.88
2024-04-12 11:30:00,SystemResetWarning,0829.8,5.00,000.00,023.9,023.1,000.0,032.5,025.7,012.7,0000.0,0022.25,0005.85,0002.89
2024-04-12 11:31:00,SystemResetWarning,0829.8,5.00,000.00,023.9,023.1,000.0,032.5,025.7,012.7,0000.0,0021.56,0005.72,0002.88
2024-04-12 11:32:00,SystemResetWarning,0829.8,4.99,000.00,023.9,023.0,000.0,032.5,025.7,012.8,0000.0,0020.91,0005.67,0002.89
2024-04-12 11:33:00,SystemResetWarning,0829.8,5.00,000.00,023.9,023.0,000.0,032.5,025.6,012.9,0000.0,0022.32,0005.66,0002.89
2024-04-12 11:34:00,SystemResetWarning,0829.8,5.01,000.00,023.8,023.0,000.0,032.5,025.6,013.0,0000.0,0022.65,0005.68,0002.89
2024-04-12 11:35:00,SystemResetWarning,0829.9,5.01,000.00,023.8,023.0,000.0,032.5,025.6,013.0,0000.0,0021.62,0005.66,0002.90
2024-04-12 11:36:00,SystemResetWarning,0829.9,5.00,000.00,023.8,022.9,000.0,032.4,025.6,013.0,0000.0,0020.30,0005.64,0002.94
2024-04-12 11:37:00,SystemResetWarning,0829.9,4.99,000.00,023.8,022.9,000.0,032.4,025.6,013.1,0000.0,0019.58,0005.54,0002.96
2024-04-12 11:38:00,SystemResetWarning,0829.9,4.99,000.00,023.8,022.9,000.0,032.4,025.6,013.1,0000.0,0019.02,0005.41,0003.00
2024-04-12 11:39:00,SystemResetWarning,0829.9,5.00,000.00,023.8,022.9,000.0,032.4,025.6,013.2,0000.0,0018.40,0005.38,0003.02
2024-04-12 11:40:00,SystemResetWarning,0829.9,5.00,000.00,023.8,022.9,000.0,032.4,025.5,013.3,0000.0,0018.46,0005.44,0003.06
2024-04-12 11:41:00,SystemResetWarning,0830.0,5.00,000.00,023.7,022.9,000.0,032.4,025.5,013.5,0000.0,0017.68,0005.43,0003.09
2024-04-12 11:42:00,SystemResetWarning,0830.0,5.00,000.00,023.7,022.9,000.0,032.4,025.5,013.7,0000.0,0017.03,0005.51,0003.13
2024-04-12 11:43:00,SystemResetWarning,0829.9,5.00,000.00,023.7,022.8,000.0,032.4,025.5,013.7,0000.0,0017.15,0005.55,0003.17
2024-04-12 11:44:00,SystemResetWarning,0829.9,5.00,000.00,023.7,022.8,000.0,032.4,025.5,013.7,0000.0,0016.36,0005.58,0003.22
2024-04-12 11:45:00,SystemResetWarning,0829.9,5.00,000.00,023.7,022.8,000.0,032.3,025.5,013.7,0000.0,0015.94,0005.60,0003.27
2024-04-12 11:46:00,SystemResetWarning,0829.9,5.00,000.00,023.7,022.8,000.0,032.3,025.5,013.5,0000.0,0016.17,0005.67,0003.31
2024-04-12 11:47:00,SystemResetWarning,0830.0,5.00,000.00,023.7,022.8,000.0,032.3,025.5,013.4,0000.0,0016.15,0005.68,0003.33
2024-04-12 11:48:00,SystemResetWarning,0829.9,5.00,000.00,023.7,022.8,000.0,032.3,025.5,013.2,0000.0,0016.31,0005.71,0003.36
2024-04-12 11:49:00,SystemResetWarning,0829.8,5.00,000.00,023.7,022.8,000.0,032.3,025.5,013.2,0000.0,0016.70,0005.72,0003.37
2024-04-12 11:50:00,SystemResetWarning,0829.9,5.00,000.00,023.7,022.8,000.0,032.3,025.5,012.9,0000.0,0017.97,0005.85,0003.39
2024-04-12 11:51:00,SystemResetWarning,0829.9,5.00,000.00,023.6,022.8,000.0,032.3,025.5,012.8,0000.0,0017.91,0005.88,0003.39
2024-04-12 11:52:00,SystemResetWarning,0829.8,5.00,000.00,023.6,022.8,000.0,032.3,025.5,012.8,0000.0,0018.08,0005.92,0003.38
2024-04-12 11:53:00,SystemResetWarning,0829.8,5.00,000.00,023.6,022.8,000.0,032.3,025.5,012.8,0000.0,0018.21,0005.87,0003.36
2024-04-12 11:54:00,SystemResetWarning,0829.8,4.99,000.00,023.6,022.8,000.0,032.2,025.5,012.8,0000.0,0019.17,0005.88,0003.33
2024-04-12 11:55:00,SystemResetWarning,0829.8,5.00,000.00,023.6,022.8,000.0,032.2,025.5,012.6,0000.0,0019.96,0005.79,0003.30
2024-04-12 11:56:00,SystemResetWarning,0829.8,5.00,000.00,023.6,022.8,000.0,032.2,025.5,012.8,0000.0,0019.86,0005.75,0003.28
2024-04-12 11:57:00,SystemResetWarning,0829.8,5.00,000.00,023.6,022.8,000.0,032.2,025.4,012.7,0000.0,0020.35,0005.76,0003.25
2024-04-12 11:58:00,SystemResetWarning,0829.8,5.00,000.00,023.6,022.8,000.0,032.2,025.4,012.6,0000.0,0021.28,0005.72,0003.23
2024-04-12 11:59:00,SystemResetWarning,0829.8,5.00,000.00,023.6,022.8,000.0,032.2,025.4,012.5,0000.0,0021.72,0005.71,0003.19
